Wind_Speed
12 12 12 11 11 12 13 13 13 13 13 12 12 11 10 9 9 8 8 8 8 8 8 8 8 8 8 8 8 8 8 8 8 8 7 6 6 5 5 5 5 5 5 4 5 4 3 3 3
12 12 11 12 13 13 13 13 14 14 13 12 12 11 11 10 9 8 8 8 8 7 7 7 7 7 7 8 8 8 8 8 8 7 6 5 4 4 4 5 5 4 4 4 4 4 3 3 2
11 12 11 11 12 13 14 14 14 13 13 12 12 12 11 10 9 9 9 8 8 7 7 7 7 7 7 7 7 7 7 7 7 6 6 5 4 4 4 4 4 4 4 4 4 4 3 3 2
11 11 11 12 12 12 13 13 14 13 13 12 13 12 11 9 9 9 8 7 7 7 7 7 6 6 6 6 6 7 7 6 6 6 5 5 4 4 4 4 4 4 4 3 3 3 3 3 2
11 11 12 12 12 12 12 13 13 14 13 12 12 12 11 10 9 8 8 7 7 7 7 7 7 6 6 6 6 6 6 6 6 5 5 5 4 3 3 4 4 4 3 3 3 3 3 2 2
11 11 11 12 13 13 13 13 14 14 13 12 12 11 10 9 9 8 7 7 6 6 6 6 6 6 6 6 6 6 5 5 5 5 5 4 4 4 4 3 3 3 3 3 3 3 2 3 3
10 11 12 12 13 13 13 14 14 13 13 12 11 11 10 9 8 8 7 7 6 5 5 5 6 6 6 6 6 6 5 5 5 5 4 4 4 4 4 2 2 3 3 3 2 3 3 2 2
11 12 12 14 14 14 14 14 14 13 12 11 10 10 9 8 8 7 6 6 6 6 5 5 5 6 6 6 6 5 5 4 4 5 5 4 4 3 3 2 2 2 2 2 2 2 2 2 2
11 12 12 14 15 14 14 14 13 13 12 11 10 10 9 8 7 6 6 6 6 6 5 5 5 6 6 6 5 5 4 4 4 5 5 5 4 3 3 2 2 2 2 2 1 1 1 2 2
11 11 12 13 14 14 15 14 13 13 12 11 10 10 9 8 7 6 6 6 6 6 6 6 6 5 5 5 5 5 4 4 4 4 4 4 3 3 3 2 2 2 2 1 1 1 2 2 2
11 12 12 13 14 14 15 14 14 13 13 12 11 10 9 8 7 6 6 6 6 6 6 6 6 5 5 5 5 5 5 5 4 3 3 3 3 2 2 1 1 1 1 1 2 2 2 2 2
11 12 12 13 14 14 15 14 14 13 13 12 11 10 9 8 7 7 7 7 7 6 6 6 6 6 5 5 5 5 5 5 4 3 3 2 2 2 2 2 2 2 1 1 1 1 2 2 2
9 10 10 11 12 13 13 13 13 13 12 11 11 10 9 8 8 8 8 8 8 7 7 7 6 6 6 6 5 5 5 4 3 2 2 2 2 2 2 2 2 2 2 1 1 1 2 2 2
7 7 7 8 10 11 13 13 12 12 11 10 10 9 9 8 8 9 9 8 8 7 7 6 6 6 6 6 5 5 5 4 4 3 2 2 2 2 2 3 2 2 2 1 1 2 2 1 2
4 5 5 6 8 9 10 12 12 11 10 9 9 9 8 8 8 8 8 8 7 7 7 7 7 6 6 5 5 5 4 4 4 4 3 3 3 2 2 2 2 2 2 2 2 2 2 2 2
4 3 4 4 5 6 7 10 10 11 9 8 7 7 7 7 7 7 7 7 7 7 7 7 6 6 5 5 4 4 4 4 3 2 2 2 2 2 1 1 2 2 3 3 2 3 3 3 4
2 2 2 3 3 4 5 7 8 9 8 7 6 6 6 6 6 6 6 6 6 5 6 6 5 5 4 3 3 3 3 3 3 2 2 1 1 1 1 1 2 2 3 3 3 4 4 4 5
3 1 1 1 1 2 4 5 6 6 6 6 5 4 4 4 4 5 5 5 5 5 5 5 4 3 2 2 2 2 2 2 2 2 2 2 1 2 2 2 2 3 4 4 5 5 5 5 6
6 4 3 3 2 3 3 4 5 5 4 4 4 3 3 4 4 4 4 3 3 4 4 4 3 3 2 1 1 2 2 3 3 2 2 2 3 3 4 4 4 5 5 6 7 7 7 7 7
8 6 5 5 4 4 3 5 5 4 4 3 3 2 1 2 3 3 3 3 2 2 2 3 3 3 3 2 2 2 3 3 4 4 3 4 5 5 5 6 6 6 6 7 8 8 8 8 8
8 7 8 7 7 6 5 4 5 4 3 3 3 3 2 1 1 2 2 2 3 2 2 3 3 3 3 3 3 3 3 3 4 4 4 6 6 6 6 6 7 8 8 8 9 8 8 9 10
10 9 9 9 8 7 7 6 5 5 4 4 5 5 4 3 3 2 3 2 3 3 4 4 4 4 4 4 5 5 6 6 6 5 5 6 8 8 8 9 9 9 9 10 10 9 10 11 11
12 11 10 10 9 9 8 9 7 7 6 5 7 6 4 4 4 4 4 4 4 5 5 5 5 6 6 6 7 7 8 8 8 8 7 8 9 8 9 10 10 10 10 10 11 11 12 12 12
13 12 11 10 10 10 9 10 8 7 7 6 7 7 6 6 6 6 6 5 6 6 7 7 7 8 9 9 9 9 10 10 10 10 11 11 10 10 11 11 12 12 12 12 12 13 14 14 14
13 13 13 12 11 11 11 12 10 9 8 8 7 7 8 9 8 7 8 8 7 8 8 9 9 9 10 10 10 10 10 10 10 10 11 11 12 12 12 13 13 14 14 14 14 15 16 16 16
13 14 14 14 13 12 12 12 11 10 10 9 8 8 10 11 10 9 10 10 10 10 11 11 11 11 11 11 11 11 11 11 12 12 12 12 12 12 13 14 15 15 16 16 17 17 17 18 19
15 15 15 15 15 14 14 13 12 11 11 10 10 10 11 11 11 11 10 10 11 11 12 12 12 13 14 14 13 12 12 13 13 13 13 13 13 13 14 14 15 16 17 17 18 18 18 19 19
17 16 17 17 18 18 16 15 13 12 12 13 12 12 12 11 11 11 11 11 12 12 13 13 13 13 13 14 14 13 13 13 14 15 15 15 16 16 16 16 17 18 19 19 20 20 20 20 20
20 19 19 19 19 19 19 17 15 14 14 15 15 15 13 13 13 12 13 13 14 14 13 13 14 14 14 13 12 13 14 15 15 16 16 16 17 17 18 18 19 19 20 20 20 21 21 21 22
23 22 22 21 20 20 20 18 16 16 16 17 16 16 15 15 15 15 15 15 15 15 15 15 15 15 15 15 16 16 16 17 17 17 18 18 19 19 20 20 20 21 21 21 21 22 22 22 22
Wind_Direction
69 65 61 61 62 61 64 65 63 62 64 64 64 68 68 69 74 75 76 78 84 88 92 94 92 91 87 82 78 78 81 80 80 85 90 93 95 95 103 105 100 101 101 97 98 93 87 82 76
66 63 62 60 64 64 63 63 62 59 61 63 63 64 67 70 74 75 79 80 82 86 92 96 94 90 87 84 81 81 82 83 83 83 83 88 96 99 104 98 96 97 95 95 95 91 82 73 75
66 63 63 63 65 65 64 65 64 62 60 60 60 61 66 67 72 74 81 83 83 87 89 94 92 89 87 85 83 82 80 82 82 82 81 81 95 94 84 82 85 90 93 96 91 88 78 65 59
67 67 66 65 62 65 67 66 67 66 62 62 61 60 61 64 70 76 78 80 84 89 90 92 93 93 91 88 84 82 80 79 78 79 80 80 82 86 88 88 88 89 87 89 89 84 74 60 52
73 71 69 65 64 65 67 68 68 66 64 64 62 61 61 66 72 75 77 80 87 93 94 94 93 94 91 87 84 85 84 79 79 80 80 77 74 82 103 99 97 94 88 87 85 79 68 59 52
74 73 71 70 68 66 65 67 67 67 65 63 63 63 64 67 69 69 74 79 86 90 96 98 94 91 89 89 87 87 85 82 82 80 77 74 73 81 93 103 98 99 96 89 84 80 61 50 46
73 70 67 69 67 67 65 64 64 64 61 59 60 63 64 64 65 66 69 70 79 90 98 103 106 103 99 94 90 88 84 81 85 82 75 74 77 77 76 88 96 108 105 97 85 82 59 47 41
73 69 66 67 64 61 63 63 62 62 60 58 58 62 62 64 64 64 62 64 76 86 95 102 107 104 100 93 90 89 85 79 84 83 77 70 70 70 66 65 85 110 111 105 98 85 53 36 31
78 72 67 66 62 59 59 60 58 58 57 57 59 62 62 62 64 65 62 67 76 87 98 106 110 105 101 95 89 88 83 80 86 83 78 76 70 62 58 68 78 109 104 100 101 78 59 42 42
84 78 75 72 67 63 58 55 55 56 55 55 55 59 60 58 62 60 62 75 79 86 95 96 102 105 98 92 87 85 85 83 83 86 82 74 66 56 53 60 66 82 85 66 45 28 34 43 41
86 83 80 74 69 64 59 57 55 54 54 52 52 57 59 56 53 51 65 77 80 88 92 92 95 96 95 90 87 86 87 88 88 87 88 79 68 58 42 52 55 50 57 46 32 35 33 31 42
85 82 81 72 69 65 60 54 53 53 52 49 49 55 57 56 52 57 71 74 76 84 93 97 95 94 90 86 86 89 90 84 84 83 85 84 71 63 51 37 9 356 351 331 351 32 24 16 22
89 86 79 76 69 63 59 54 50 50 51 49 48 50 50 49 52 60 67 75 76 82 94 97 94 94 93 89 87 90 90 87 75 73 65 55 59 63 53 45 13 355 347 349 14 13 6 10 22
94 89 78 73 67 60 55 55 51 49 48 48 47 49 53 51 50 57 65 69 72 80 90 96 96 95 95 92 87 84 86 81 75 71 63 54 53 55 46 40 23 5 349 339 338 325 330 332 342
96 88 73 67 64 58 56 55 50 46 46 46 46 46 50 52 53 57 63 67 66 72 84 90 89 89 89 87 86 84 80 76 77 70 68 58 51 49 42 37 15 350 331 324 310 310 319 314 308
106 91 75 68 64 58 54 48 41 40 41 41 42 46 49 53 58 62 66 66 66 75 84 85 84 84 80 81 82 81 76 70 70 65 59 51 43 45 37 20 357 339 326 327 311 301 301 301 298
145 119 90 71 58 48 38 34 31 29 33 33 35 39 42 52 56 60 61 58 61 73 82 78 77 76 74 78 79 81 71 56 49 38 28 32 52 52 12 348 332 327 321 310 307 295 292 294 297
182 187 251 349 12 12 11 13 16 20 27 24 22 31 39 47 50 51 49 51 53 58 63 65 68 66 62 61 60 54 32 23 19 15 6 359 0 341 336 343 329 326 325 311 310 300 292 290 289
229 232 270 293 299 317 335 346 357 14 20 13 10 26 43 48 39 27 24 33 39 51 50 49 46 38 23 10 6 351 349 357 355 345 331 320 315 314 315 319 318 314 315 314 312 309 296 291 288
239 240 262 274 279 293 308 323 343 15 17 13 4 7 23 33 28 14 7 3 13 28 25 22 16 9 353 334 327 328 332 341 336 315 305 299 298 299 303 308 308 308 308 311 304 302 297 291 288
248 254 268 274 274 280 300 305 318 333 339 331 318 313 310 299 315 326 330 338 342 338 347 334 330 336 328 313 299 302 304 310 313 309 301 298 296 296 297 298 302 302 301 304 303 296 293 291 288
258 265 269 270 270 279 289 295 307 317 313 322 316 306 309 301 299 327 322 301 316 329 339 325 318 317 312 309 307 297 294 295 294 294 290 290 292 293 294 293 296 296 295 297 298 297 291 290 289
258 265 268 264 267 272 283 293 298 302 313 315 315 315 314 319 318 313 305 298 303 315 321 322 307 305 299 294 294 298 293 291 288 284 285 288 289 292 292 291 295 294 291 292 292 296 295 292 291
257 261 265 264 267 270 280 287 291 297 304 307 309 304 307 309 308 306 298 288 290 297 302 308 301 295 294 287 286 291 292 292 288 286 287 289 293 295 295 292 293 293 289 289 289 292 293 293 291
257 258 260 264 268 267 272 277 284 295 298 305 311 306 303 304 305 306 303 292 287 291 295 297 297 299 296 291 286 289 292 293 292 291 290 293 294 296 296 296 295 294 293 291 290 292 290 291 291
257 257 259 266 268 267 270 277 284 290 294 297 301 303 304 305 306 306 303 296 289 292 294 294 291 294 291 286 284 287 291 294 292 291 294 295 296 298 299 300 296 297 296 295 294 292 290 291 291
255 254 258 262 265 268 270 276 281 283 284 291 295 299 303 302 304 302 299 294 290 292 295 295 296 290 282 280 282 283 286 289 292 293 294 294 296 300 300 300 299 298 299 299 295 294 292 292 290
252 259 257 261 264 266 270 273 276 281 287 295 300 300 298 299 301 299 295 293 292 290 291 292 291 293 288 283 278 280 290 294 295 295 291 291 294 296 298 299 300 298 298 299 297 295 295 292 289
253 256 260 262 264 267 272 274 278 282 289 295 299 298 295 295 297 294 289 286 285 287 285 285 288 292 292 291 291 291 292 293 293 293 292 292 293 294 295 297 299 299 298 298 297 296 294 293 290
254 255 259 261 265 269 274 277 278 278 284 289 293 293 291 291 293 290 285 284 288 289 285 283 284 288 290 293 293 292 291 291 292 294 292 291 291 293 294 295 296 297 296 296 296 296 295 294 292
Height
5892 5891 5891 5892 5892 5891 5890 5889 5888 5888 5888 5887 5887 5887 5887 5887 5888 5890 5888 5887 5887 5887 5887 5888 5887 5887 5887 5887 5888 5888 5888 5888 5888 5889 5890 5890 5891 5891 5892 5893 5893 5894 5894 5895 5895 5895 5896 5896 5896
5894 5894 5894 5894 5893 5892 5892 5890 5889 5889 5889 5889 5888 5888 5888 5888 5888 5889 5888 5888 5889 5889 5889 5889 5889 5889 5889 5889 5889 5889 5889 5890 5890 5890 5891 5891 5892 5892 5893 5893 5894 5895 5895 5896 5896 5896 5896 5896 5896
5896 5896 5896 5895 5894 5894 5893 5892 5891 5891 5891 5890 5890 5889 5890 5890 5890 5889 5890 5890 5890 5890 5890 5890 5889 5889 5889 5889 5890 5890 5890 5891 5891 5891 5892 5892 5893 5893 5894 5894 5895 5895 5896 5896 5897 5897 5897 5897 5896
5898 5898 5898 5897 5896 5895 5894 5893 5893 5892 5892 5892 5891 5891 5891 5891 5891 5891 5891 5891 5891 5891 5891 5891 5890 5890 5890 5891 5891 5891 5891 5892 5892 5892 5893 5893 5893 5894 5894 5895 5895 5896 5897 5897 5897 5897 5897 5897 5897
5900 5900 5899 5898 5897 5897 5896 5895 5894 5893 5893 5893 5893 5893 5893 5893 5893 5892 5892 5892 5892 5892 5892 5891 5891 5891 5892 5892 5892 5892 5892 5892 5893 5893 5893 5893 5894 5894 5894 5895 5896 5896 5897 5897 5897 5897 5897 5897 5897
5902 5902 5901 5900 5899 5899 5898 5897 5895 5895 5895 5895 5894 5894 5894 5894 5894 5894 5893 5893 5893 5893 5893 5892 5892 5892 5892 5892 5893 5893 5893 5893 5894 5894 5894 5894 5894 5895 5895 5896 5896 5897 5897 5897 5897 5898 5898 5898 5897
5904 5903 5902 5902 5901 5900 5900 5898 5897 5897 5897 5897 5896 5895 5895 5895 5895 5895 5895 5894 5894 5893 5893 5893 5893 5893 5893 5893 5893 5893 5894 5894 5894 5895 5895 5895 5895 5895 5896 5896 5896 5897 5897 5898 5898 5898 5898 5898 5898
5905 5905 5904 5903 5902 5902 5901 5900 5899 5899 5898 5898 5898 5897 5896 5896 5896 5895 5895 5895 5894 5894 5894 5894 5894 5894 5894 5894 5894 5894 5894 5895 5895 5895 5895 5896 5896 5896 5896 5896 5897 5897 5897 5898 5898 5898 5898 5898 5898
5906 5907 5905 5905 5904 5904 5903 5902 5901 5900 5900 5899 5899 5898 5898 5897 5897 5896 5896 5895 5895 5894 5894 5894 5894 5894 5894 5895 5895 5895 5895 5895 5896 5896 5896 5896 5897 5897 5897 5897 5897 5897 5898 5898 5898 5898 5898 5898 5898
5907 5907 5907 5907 5906 5906 5905 5904 5903 5902 5901 5900 5899 5899 5898 5898 5897 5897 5896 5896 5895 5895 5895 5895 5895 5895 5896 5896 5896 5896 5896 5896 5896 5897 5897 5897 5897 5897 5897 5897 5898 5898 5898 5898 5898 5899 5899 5898 5898
5908 5908 5908 5908 5908 5907 5907 5906 5905 5904 5903 5902 5901 5900 5900 5899 5899 5898 5897 5896 5895 5895 5895 5896 5896 5896 5896 5897 5896 5896 5896 5897 5897 5897 5897 5898 5898 5898 5898 5898 5898 5898 5898 5898 5899 5899 5899 5899 5898
5910 5910 5910 5910 5909 5909 5908 5908 5907 5906 5905 5904 5903 5901 5901 5901 5900 5899 5898 5897 5896 5896 5896 5896 5897 5897 5897 5897 5897 5897 5897 5897 5898 5898 5898 5898 5898 5898 5898 5898 5898 5898 5898 5898 5899 5899 5899 5899 5899
5912 5912 5912 5911 5911 5910 5910 5909 5909 5907 5906 5905 5904 5903 5902 5901 5901 5900 5898 5898 5897 5897 5897 5897 5898 5898 5898 5898 5898 5898 5898 5898 5898 5898 5898 5898 5898 5898 5898 5898 5898 5898 5898 5898 5898 5899 5899 5899 5899
5913 5913 5913 5912 5912 5911 5911 5910 5910 5909 5908 5907 5906 5905 5904 5903 5902 5901 5900 5899 5899 5899 5898 5898 5898 5899 5899 5899 5899 5899 5899 5898 5898 5898 5899 5898 5898 5898 5898 5898 5898 5898 5898 5898 5898 5898 5898 5899 5898
5914 5914 5914 5913 5913 5912 5912 5912 5911 5910 5909 5908 5907 5906 5905 5904 5903 5902 5901 5901 5900 5899 5899 5899 5899 5900 5900 5900 5900 5899 5899 5899 5899 5899 5899 5899 5899 5898 5898 5898 5898 5898 5898 5898 5898 5898 5898 5898 5898
5915 5915 5914 5914 5914 5913 5914 5913 5912 5911 5910 5909 5908 5907 5906 5905 5904 5903 5903 5902 5901 5901 5901 5900 5900 5901 5901 5901 5900 5900 5900 5900 5899 5899 5899 5899 5898 5898 5898 5898 5898 5898 5898 5897 5897 5897 5897 5897 5897
5915 5915 5915 5915 5914 5914 5914 5913 5912 5911 5911 5910 5909 5908 5907 5906 5905 5905 5904 5903 5903 5902 5902 5901 5901 5901 5901 5901 5901 5900 5900 5900 5899 5899 5899 5898 5898 5898 5898 5898 5898 5897 5897 5897 5897 5896 5896 5896 5896
5915 5915 5915 5915 5914 5914 5913 5913 5912 5911 5911 5910 5909 5909 5908 5907 5906 5905 5905 5904 5903 5903 5903 5902 5901 5901 5901 5901 5901 5901 5900 5900 5899 5899 5899 5898 5898 5898 5898 5898 5897 5897 5896 5896 5896 5895 5895 5895 5895
5915 5915 5915 5915 5914 5914 5913 5913 5912 5911 5911 5910 5909 5909 5908 5907 5906 5905 5905 5904 5904 5904 5903 5902 5902 5901 5901 5901 5901 5901 5900 5900 5899 5899 5898 5898 5898 5897 5897 5897 5896 5896 5896 5895 5895 5894 5894 5893 5893
5914 5915 5914 5914 5914 5913 5913 5912 5912 5911 5911 5910 5909 5908 5908 5907 5906 5905 5905 5904 5904 5903 5903 5902 5902 5901 5901 5901 5900 5900 5900 5899 5898 5898 5897 5897 5897 5896 5896 5896 5895 5895 5894 5894 5893 5893 5892 5892 5891
5913 5914 5913 5913 5913 5912 5912 5912 5911 5911 5910 5909 5909 5908 5907 5906 5906 5905 5904 5904 5903 5902 5902 5902 5901 5901 5900 5900 5900 5899 5899 5898 5898 5897 5896 5896 5895 5895 5895 5894 5894 5893 5893 5892 5891 5891 5890 5890 5889
5912 5912 5912 5912 5911 5911 5911 5911 5911 5910 5909 5909 5908 5907 5906 5905 5905 5904 5904 5903 5902 5901 5901 5900 5900 5900 5899 5899 5899 5898 5898 5897 5896 5895 5895 5894 5894 5893 5893 5893 5892 5891 5890 5890 5889 5888 5888 5887 5887
5910 5910 5910 5910 5910 5910 5909 5910 5911 5909 5908 5908 5907 5906 5905 5905 5904 5903 5903 5902 5902 5901 5901 5900 5899 5899 5898 5897 5897 5896 5896 5895 5895 5894 5893 5893 5892 5891 5891 5890 5889 5889 5888 5887 5887 5886 5885 5884 5884
5908 5908 5908 5908 5908 5908 5908 5908 5909 5908 5907 5907 5906 5905 5904 5904 5903 5902 5902 5901 5901 5900 5900 5899 5898 5897 5897 5896 5895 5895 5894 5893 5893 5892 5891 5890 5889 5888 5888 5887 5886 5886 5885 5884 5884 5883 5882 5881 5881
5906 5907 5907 5906 5906 5906 5906 5906 5907 5907 5906 5905 5904 5903 5902 5902 5902 5901 5900 5900 5899 5899 5898 5897 5896 5895 5894 5894 5893 5892 5892 5891 5890 5890 5889 5888 5887 5886 5885 5884 5883 5883 5882 5881 5881 5880 5879 5878 5877
5903 5904 5905 5904 5904 5904 5904 5903 5905 5904 5904 5903 5902 5902 5901 5900 5899 5899 5898 5897 5897 5897 5896 5894 5893 5892 5892 5891 5890 5890 5889 5889 5888 5887 5886 5886 5885 5884 5883 5882 5880 5879 5879 5878 5877 5876 5875 5874 5873
5900 5900 5901 5901 5901 5901 5901 5901 5902 5901 5901 5901 5901 5900 5899 5898 5896 5896 5895 5894 5894 5893 5893 5891 5890 5889 5889 5888 5887 5887 5886 5886 5885 5884 5883 5882 5882 5881 5880 5879 5877 5876 5875 5874 5873 5872 5871 5870 5868
5897 5897 5898 5898 5897 5897 5898 5898 5899 5899 5899 5899 5898 5897 5896 5895 5893 5893 5892 5891 5890 5890 5889 5888 5887 5886 5885 5883 5883 5884 5883 5882 5881 5881 5880 5879 5878 5877 5876 5875 5874 5872 5871 5869 5868 5867 5866 5865 5863
5893 5893 5893 5894 5894 5894 5894 5897 5897 5896 5896 5896 5895 5894 5893 5892 5891 5890 5889 5888 5887 5886 5885 5885 5884 5883 5882 5881 5880 5880 5880 5879 5878 5877 5876 5875 5874 5873 5872 5870 5869 5867 5866 5864 5863 5862 5860 5859 5858
5888 5889 5890 5891 5890 5890 5891 5895 5893 5893 5892 5892 5892 5891 5890 5889 5888 5887 5886 5884 5883 5882 5881 5881 5881 5879 5878 5878 5877 5877 5876 5875 5874 5873 5871 5870 5869 5868 5866 5865 5864 5863 5861 5859 5858 5857 5855 5853 5852